[[{"header":{"parameterUnit":"m.s-1","parameterCategory":1,"la1":30.2991,"la2":30.254,"lo1":-89.0895,"lo2":-89.0444,"dy":0.0017,"dx":0.0017,"nx":28,"ny":28,"refTime":"2024-07-03T21:00:00:Z","depth":0,"parameterNumber":2,"parameterNumberName":"U-component_of_WINDS"},"data":[0,0,0,0,0,0,0,0,0,0,0,0,0,0,0,0,0,0,0,0,0,0,0,0,0,0,0,0,0,0,0,0,0,0,0,0,0,0,0,0,0,0,0,0,0,0,0,0,0,0,0,0,0,0,0,0,0,0,-0.9341,-0.934,0,-0.9291,-0.9291,-0.929,-0.9339,-0.9341,-0.9343,-0.9345,-0.9289,-0.9286,-0.9283,0,0,0,0,0,0,0,0,0,0,0,0,0,-0.9472,-0.947,-0.9341,-0.934,-0.934,-0.9291,-0.9291,-0.929,-0.9339,-0.9342,-0.9344,-0.9346,-0.929,-0.9286,-0.9283,0,0,0,0,0,0,0,0,0,0,0,0,0,-0.9418,-0.9469,-0.9341,-0.9358,-0.9359,-0.9292,-0.9291,-0.929,-0.9339,-0.9342,-0.9345,-0.9347,-0.9292,-0.9287,-0.9282,-0.9193,0,0,-0.9267,-0.9265,0,0,0,0,0,0,0,0,-0.9421,-0.9413,-0.9356,-0.9357,-0.9358,-0.9325,-0.9317,-0.9257,-0.9338,-0.9346,-0.9345,-0.9349,-0.9298,-0.9293,-0.9277,-0.919,-0.9188,-0.9266,-0.9263,-0.9261,-0.926,0,0,0,0,0,0,0,-0.9425,-0.9416,-0.9321,-0.9355,-0.9357,-0.9367,-0.9362,-0.9306,-0.9306,-0.9346,-0.9349,-0.9343,-0.9299,-0.9282,-0.9276,-0.9187,-0.9267,-0.9262,-0.9259,-0.9257,-0.9022,-0.9019,0,0,0,0,0,0,-0.9427,-0.9418,-0.9323,-0.932,-0.9398,-0.9362,-0.9357,-0.9332,-0.9307,-0.9306,-0.9341,-0.9346,-0.9289,-0.9282,-0.9274,-0.9166,-0.9261,-0.9257,-0.9254,-0.9025,-0.9021,-0.9017,0,0,0,0,0,0,-0.943,-0.9418,-0.9325,-0.937,-0.9359,-0.9357,-0.9329,-0.933,-0.9312,-0.9303,-0.9303,-0.9323,-0.9291,-0.9281,-0.9213,-0.9165,-0.9254,-0.925,-0.9029,-0.9024,-0.9019,-0.895,0,0,0,0,0,0,-0.9434,-0.9419,-0.9386,-0.9369,-0.9356,-0.9265,-0.9326,-0.9327,-0.9304,-0.931,-0.9287,-0.9285,-0.9292,-0.922,-0.9208,-0.916,-0.9246,-0.9033,-0.9027,-0.9021,-0.8957,-0.8944,-0.8932,0,0,0,0,0,-0.9438,-0.9368,-0.9384,-0.9373,-0.9316,-0.9262,-0.9255,-0.9266,-0.93,-0.9266,-0.926,-0.9286,-0.9173,-0.9212,-0.9199,-0.9149,-0.9036,-0.9028,-0.9021,-0.8962,-0.8946,-0.8933,0,0,0,0,0,0,-0.9378,-0.9366,-0.9384,-0.9307,-0.9285,-0.9271,-0.9228,-0.9249,-0.9216,-0.9222,-0.9236,-0.923,-0.9157,-0.9147,-0.9191,-0.906,-0.911,-0.9099,-0.9069,-0.9054,-0.9042,-0.9045,-0.9242,0,0,0,0,0,-0.9357,-0.9316,-0.9307,-0.924,-0.9228,-0.923,-0.9207,-0.9218,-0.9195,-0.9186,-0.9175,-0.915,-0.9109,-0.9082,-0.9043,-0.8956,-0.895,-0.8915,-0.8903,-0.8893,-0.8883,-0.8834,-0.8817,-0.8993,-0.8993,-0.8993,0,0,-0.9311,-0.9299,-0.9272,-0.9227,-0.9212,-0.9167,-0.9222,-0.9173,-0.9139,-0.9178,-0.9112,-0.9103,-0.9076,-0.8998,-0.8962,-0.8987,-0.8834,-0.8884,-0.8876,-0.8871,-0.8824,-0.8808,-0.8793,-0.8988,-0.8989,-0.899,0,0,-0.9203,-0.9192,-0.9133,-0.9117,-0.9093,-0.9095,-0.9081,-0.9063,-0.9059,-0.8993,-0.9021,-0.898,-0.891,-0.8889,-0.8869,-0.8754,-0.8775,-0.8741,-0.8676,-0.8628,-0.8614,-0.8601,-0.8557,-0.8542,-0.8732,-0.8731,-0.8731,0,-0.9148,-0.9084,-0.91,-0.9049,-0.9027,-0.9062,-0.9001,-0.8984,-0.8948,-0.8932,-0.8961,-0.8872,-0.8857,-0.8772,-0.8744,-0.8728,-0.871,-0.8742,-0.8615,-0.8603,-0.8591,-0.8549,-0.8533,-0.8727,-0.8728,-0.8728,-0.8729,0,-0.9016,-0.8971,-0.8926,-0.8892,-0.8866,-0.881,-0.8816,-0.8787,-0.88,-0.8798,-0.8729,-0.8713,-0.867,-0.8652,-0.8664,-0.8568,-0.8584,-0.8614,-0.8663,-0.857,-0.8531,-0.8515,-0.8721,-0.8723,-0.8724,-0.8725,0,0,-0.8868,-0.8844,-0.8827,-0.8811,-0.8787,-0.8752,-0.8697,-0.8657,-0.8631,-0.8605,-0.8558,-0.8497,-0.8524,-0.8502,-0.8512,-0.847,-0.8375,-0.8504,-0.8504,-0.8478,-0.8266,-0.8241,-0.8222,-0.8391,-0.8388,-0.8386,-0.8267,0,-0.8757,-0.8664,-0.8676,-0.8585,-0.8542,-0.8575,-0.8526,-0.8506,-0.8502,-0.8464,-0.846,-0.8415,-0.8456,-0.8442,-0.8403,-0.8395,-0.8332,-0.8405,-0.8343,-0.8341,-0.8346,-0.8202,-0.8177,-0.8065,-0.8252,-0.8249,-0.8248,0,-0.8616,-0.8586,-0.8491,-0.8473,-0.8455,-0.8412,-0.8375,-0.8339,-0.8316,-0.8316,-0.8291,-0.8308,-0.825,-0.8303,-0.8223,-0.8271,-0.8247,-0.824,-0.8236,-0.8228,-0.8286,-0.8187,-0.803,-0.8012,-0.8224,-0.8226,-0.8228,0,-0.8513,-0.845,-0.8384,-0.837,-0.8348,-0.8316,-0.8305,-0.8285,-0.8259,-0.8228,-0.8211,-0.8172,-0.815,-0.8119,-0.8124,-0.8163,-0.8041,-0.8095,-0.8036,-0.8036,-0.8007,-0.8008,-0.784,-0.7997,-0.7997,-0.7997,-0.7998,0,-0.8387,-0.8327,-0.8337,-0.8296,-0.8229,-0.8244,-0.8176,-0.8169,-0.8151,-0.8107,-0.8134,-0.8092,-0.8103,-0.8061,-0.8065,-0.7996,-0.7987,-0.7983,-0.7984,-0.7979,-0.7979,-0.7961,-0.7967,-0.7993,-0.7994,-0.7995,-0.7995,0,-0.826,-0.8266,-0.8195,-0.8181,-0.8176,-0.8126,-0.8113,-0.8073,-0.8072,-0.8017,-0.8005,-0.8003,-0.7955,-0.7958,-0.7903,-0.7906,-0.7819,-0.7831,-0.7827,-0.7829,-0.7769,-0.7773,-0.7581,-0.7556,-0.7732,-0.773,-0.7729,0,-0.8178,-0.8132,-0.8113,-0.8086,-0.8073,-0.8031,-0.8005,-0.8018,-0.799,-0.796,-0.7923,-0.7878,-0.7842,-0.7763,-0.7755,-0.7713,-0.7722,-0.7658,-0.7716,-0.7711,-0.7717,-0.7718,-0.7712,-0.7645,-0.7643,-0.7642,-0.764,0,-0.803,-0.8034,-0.7998,-0.7961,-0.7931,-0.7902,-0.7877,-0.7853,-0.7863,-0.783,-0.7782,-0.7754,-0.7699,-0.7652,-0.7612,-0.7599,-0.7619,-0.7623,-0.7606,-0.7599,-0.7597,-0.7594,-0.7793,-0.7626,-0.7628,-0.7629,-0.7629,-0.763,-0.792,-0.788,-0.786,-0.7818,-0.78,-0.7775,-0.7737,-0.7732,-0.7692,-0.7649,-0.7659,-0.7604,-0.758,-0.7528,-0.7511,-0.7467,-0.7489,-0.7466,-0.746,-0.7453,-0.7445,-0.7607,-0.746,-0.746,-0.7461,-0.7461,-0.7461,0,-0.7771,-0.776,-0.7721,-0.7684,-0.765,-0.7676,-0.7649,-0.7617,-0.7569,-0.7546,-0.7511,-0.7454,-0.7409,-0.7398,-0.7354,-0.7321,-0.7329,-0.7308,-0.7309,-0.7305,-0.7429,-0.7446,-0.7302,-0.7302,-0.7302,-0.7302,-0.7302,-0.7302,-0.7689,-0.7622,-0.7624,-0.7548,-0.7537,-0.7484,-0.7465,-0.7442,-0.7423,-0.7359,-0.7322,-0.7317,-0.7297,-0.7252,-0.7211,-0.7209,-0.719,-0.7165,-0.7166,-0.7281,-0.7297,-0.7312,-0.7327,-0.7161,-0.7161,-0.7045,-0.7044,-0.7043]},{"header":{"parameterUnit":"m.s-1","parameterCategory":1,"la1":30.2991,"la2":30.254,"lo1":-89.0895,"lo2":-89.0444,"dy":0.0017,"dx":0.0017,"nx":28,"ny":28,"refTime":"2024-07-03T21:00:00:Z","depth":0,"parameterNumber":3,"parameterNumberName":"V-component_of_WINDS"},"data":[0,0,0,0,0,0,0,0,0,0,0,0,0,0,0,0,0,0,0,0,0,0,0,0,0,0,0,0,0,0,0,0,0,0,0,0,0,0,0,0,0,0,0,0,0,0,0,0,0,0,0,0,0,0,0,0,0,0,0.8122,0.8122,0,0.8087,0.8087,0.8086,0.8026,0.8025,0.8024,0.8023,0.7987,0.7987,0.7987,0,0,0,0,0,0,0,0,0,0,0,0,0,0.8138,0.8138,0.8122,0.8121,0.8121,0.8087,0.8087,0.8086,0.8026,0.8025,0.8023,0.8022,0.7987,0.7987,0.7987,0,0,0,0,0,0,0,0,0,0,0,0,0,0.812,0.8138,0.8122,0.8087,0.8084,0.8087,0.8086,0.8086,0.8026,0.8025,0.8023,0.8022,0.7987,0.7987,0.7987,0.8022,0,0,0.7988,0.7988,0,0,0,0,0,0,0,0,0.8121,0.812,0.8093,0.8089,0.8086,0.8059,0.8079,0.8065,0.8027,0.8048,0.8023,0.8021,0.8012,0.801,0.8008,0.802,0.8019,0.7988,0.7988,0.7988,0.7988,0,0,0,0,0,0,0,0.8123,0.8121,0.8108,0.8092,0.8088,0.8074,0.8069,0.8076,0.804,0.8046,0.8042,0.8038,0.801,0.8008,0.8006,0.8018,0.7988,0.7988,0.7988,0.7988,0.806,0.8062,0,0,0,0,0,0,0.8129,0.8122,0.8109,0.8107,0.81,0.8075,0.807,0.8069,0.804,0.8034,0.804,0.8036,0.8008,0.8006,0.8005,0.8045,0.7988,0.7988,0.7988,0.8059,0.8061,0.8063,0,0,0,0,0,0,0.813,0.8128,0.8111,0.8113,0.811,0.8076,0.8076,0.807,0.8067,0.8035,0.8029,0.8044,0.8007,0.8005,0.8019,0.8043,0.7988,0.7988,0.8056,0.8059,0.8062,0.8125,0,0,0,0,0,0,0.813,0.8129,0.8141,0.8114,0.811,0.8125,0.8078,0.807,0.8067,0.8061,0.8037,0.8031,0.8005,0.8019,0.8019,0.8042,0.7988,0.8054,0.8058,0.8061,0.8121,0.8129,0.8137,0,0,0,0,0,0.8131,0.816,0.8142,0.8141,0.8125,0.8126,0.8124,0.8093,0.8069,0.8082,0.8062,0.8032,0.804,0.8021,0.802,0.8044,0.8052,0.8057,0.8061,0.8117,0.8128,0.8137,0,0,0,0,0,0,0.819,0.8156,0.8136,0.8156,0.8145,0.8116,0.8131,0.8105,0.81,0.8095,0.8057,0.8052,0.8072,0.8059,0.8038,0.8077,0.8042,0.8046,0.8085,0.8095,0.8103,0.8106,0.7989,0,0,0,0,0,0.8206,0.821,0.8179,0.8201,0.8196,0.8165,0.8164,0.8142,0.8128,0.8123,0.8104,0.8092,0.8092,0.8092,0.809,0.8118,0.8113,0.8135,0.8143,0.815,0.8154,0.817,0.818,0.8076,0.8076,0.8076,0,0,0.8238,0.822,0.8224,0.8212,0.82,0.8206,0.8161,0.8168,0.8172,0.8124,0.8136,0.8122,0.8107,0.8128,0.8137,0.8118,0.8182,0.8155,0.8161,0.8161,0.8175,0.8185,0.8194,0.8079,0.8079,0.8078,0,0,0.8299,0.8285,0.8302,0.8292,0.8275,0.8254,0.8259,0.8234,0.8223,0.8235,0.82,0.8204,0.8205,0.8196,0.8191,0.8252,0.8225,0.8252,0.8296,0.8311,0.832,0.8327,0.835,0.8358,0.8256,0.8256,0.8257,0,0.8341,0.8347,0.8314,0.8324,0.8321,0.8278,0.8296,0.8288,0.8271,0.827,0.825,0.8251,0.8237,0.8257,0.8272,0.8269,0.8274,0.8255,0.8321,0.8328,0.8334,0.8355,0.8364,0.826,0.826,0.8259,0.8259,0,0.8401,0.8406,0.8422,0.8408,0.8406,0.842,0.839,0.8392,0.8371,0.8353,0.8367,0.8349,0.8344,0.8347,0.8325,0.8364,0.8354,0.8328,0.8291,0.8348,0.8368,0.8375,0.8265,0.8264,0.8263,0.8262,0,0,0.8497,0.8466,0.8472,0.8466,0.8446,0.8449,0.8462,0.8457,0.8461,0.8451,0.8462,0.8464,0.8441,0.8436,0.8413,0.8427,0.8478,0.8399,0.8398,0.8416,0.8522,0.8543,0.8553,0.846,0.8462,0.8463,0.8524,0,0.8555,0.8574,0.8546,0.8572,0.8578,0.8538,0.855,0.8539,0.8523,0.8526,0.8508,0.8511,0.8479,0.8476,0.8488,0.847,0.8499,0.8465,0.8471,0.8471,0.8477,0.8563,0.8584,0.8642,0.8531,0.8533,0.8534,0,0.8624,0.8619,0.8646,0.8626,0.8627,0.8638,0.8632,0.8635,0.8622,0.861,0.8606,0.8579,0.8591,0.8556,0.8573,0.8551,0.8552,0.8543,0.8545,0.8545,0.8506,0.8566,0.866,0.867,0.8545,0.8544,0.8543,0,0.8693,0.8693,0.871,0.8706,0.8682,0.8691,0.8681,0.8667,0.8667,0.8662,0.8662,0.8659,0.8657,0.8656,0.863,0.8606,0.8651,0.8613,0.8642,0.8643,0.8653,0.8653,0.875,0.8653,0.8652,0.8652,0.8652,0,0.8761,0.8779,0.8741,0.8751,0.8772,0.8739,0.8761,0.8747,0.8735,0.8743,0.8709,0.8717,0.8682,0.8687,0.8666,0.8685,0.8684,0.8675,0.867,0.8679,0.868,0.8679,0.8675,0.8655,0.8654,0.8654,0.8653,0,0.8841,0.8816,0.8832,0.8809,0.8804,0.882,0.88,0.881,0.8792,0.8803,0.8803,0.8776,0.878,0.8754,0.8753,0.874,0.8768,0.8755,0.8773,0.8769,0.88,0.8798,0.89,0.8913,0.8807,0.8808,0.8809,0,0.8886,0.89,0.8879,0.8882,0.8874,0.8879,0.8879,0.8849,0.885,0.8838,0.885,0.8851,0.8851,0.8859,0.884,0.884,0.8827,0.8863,0.8827,0.8836,0.8829,0.8829,0.8831,0.8871,0.8872,0.8873,0.8874,0,0.8969,0.8957,0.8958,0.8955,0.8957,0.8953,0.8947,0.8952,0.8919,0.8923,0.8927,0.8927,0.8927,0.8929,0.8926,0.8917,0.8891,0.8886,0.8893,0.8902,0.8913,0.8909,0.8795,0.8884,0.8883,0.8882,0.8881,0.8881,0.9034,0.9045,0.9032,0.9035,0.9028,0.9024,0.9033,0.9017,0.902,0.9018,0.9,0.9008,0.8997,0.8989,0.8983,0.899,0.8973,0.8982,0.8985,0.8988,0.8994,0.8911,0.8989,0.8989,0.8988,0.8988,0.8988,0,0.9116,0.9107,0.911,0.9104,0.9107,0.9082,0.9075,0.908,0.9087,0.9079,0.908,0.9086,0.9089,0.9071,0.9071,0.9081,0.9069,0.9082,0.9081,0.908,0.9009,0.9003,0.9091,0.9091,0.9091,0.9091,0.9091,0.9091,0.9159,0.9177,0.9164,0.9179,0.9169,0.9177,0.9176,0.9173,0.9166,0.9175,0.9177,0.9165,0.9154,0.9154,0.9156,0.915,0.9153,0.917,0.9161,0.9095,0.9085,0.9075,0.907,0.9171,0.9171,0.9232,0.9233,0.9233]}]]